| time (UTC) | temp C | wind direction | speed KPH | gust KPH | rain 1hr cm | rain 24hr cm | rain mn cm | humidity % | barometer mb |
| 20260905145321 | 20 | 297 | 19.3 | 0.0 | 0.00 | 0.00 | 0.00 | 65 | 1011.3 |
| 20260905125646 | 21 | 301 | 22.5 | 0.0 | 0.00 | 0.00 | 0.00 | 65 | 1011.3 |
| 20260905125325 | 21 | 301 | 22.5 | 0.0 | 0.00 | 0.00 | 0.00 | 65 | 1011.3 |
| 20260905115330 | 21 | 289 | 22.5 | 0.0 | 0.00 | 0.00 | 0.00 | 65 | 1011.3 |
| 20260905112321 | 20 | 291 | 24.1 | 0.0 | 0.00 | 0.00 | 0.00 | 65 | 1011.3 |
| 20260905102318 | 20 | 290 | 22.5 | 0.0 | 0.00 | 0.00 | 0.00 | 65 | 1011.3 |
| 20260905092319 | 18 | 294 | 20.9 | 0.0 | 0.00 | 0.00 | 0.00 | 65 | 1011.3 |
| 20260905085319 | 18 | 295 | 20.9 | 0.0 | 0.00 | 0.00 | 0.00 | 65 | 1011.3 |
| 20260905065321 | 17 | 264 | 12.9 | 0.0 | 0.00 | 0.00 | 0.00 | 65 | 1011.3 |
| 20260905062319 | 16 | 263 | 11.3 | 0.0 | 0.00 | 0.00 | 0.00 | 65 | 1011.3 |
| 20260905052321 | 16 | 273 | 14.5 | 0.0 | 0.00 | 0.00 | 0.00 | 65 | 1011.3 |
| 20260905045319 | 16 | 276 | 16.1 | 0.0 | 0.00 | 0.00 | 0.00 | 65 | 1011.3 |
| 20260905035327 | 16 | 267 | 14.5 | 0.0 | 0.00 | 0.00 | 0.00 | 65 | 1011.3 |
| 20260905032326 | 16 | 255 | 12.9 | 0.0 | 0.00 | 0.00 | 0.00 | 65 | 1011.3 |
| 20260905025318 | 16 | 255 | 11.3 | 0.0 | 0.00 | 0.00 | 0.00 | 65 | 1011.3 |
| 20260905022318 | 16 | 270 | 11.3 | 0.0 | 0.00 | 0.00 | 0.00 | 65 | 1011.3 |
| 20260905015321 | 16 | 270 | 12.9 | 0.0 | 0.00 | 0.00 | 0.00 | 65 | 1011.3 |
| 20260905012321 | 16 | 279 | 14.5 | 0.0 | 0.00 | 0.00 | 0.00 | 65 | 1011.3 |
| 20260905002318 | 17 | 272 | 17.7 | 0.0 | 0.00 | 0.00 | 0.00 | 65 | 1011.3 |
| 20260904235318 | 17 | 270 | 17.7 | 0.0 | 0.00 | 0.00 | 0.00 | 65 | 1011.3 |
| 20260904232327 | 17 | 267 | 14.5 | 0.0 | 0.00 | 0.00 | 0.00 | 65 | 1011.3 |
| 20260904222319 | 19 | 304 | 17.7 | 0.0 | 0.00 | 0.00 | 0.00 | 65 | 1010.9 |
| 20260904215319 | 20 | 304 | 16.1 | 0.0 | 0.00 | 0.00 | 0.00 | 64 | 1016.3 |
| 20260904212319 | 20 | 303 | 17.7 | 0.0 | 0.00 | 0.00 | 0.00 | 64 | 1016.3 |
| 20260904205322 | 21 | 308 | 19.3 | 0.0 | 0.00 | 0.00 | 0.00 | 64 | 1016.3 |
| 20260904195326 | 22 | 303 | 19.3 | 0.0 | 0.00 | 0.00 | 0.00 | 64 | 1016.3 |
| 20260904192319 | 23 | 246 | 16.1 | 0.0 | 0.00 | 0.00 | 0.00 | 64 | 1016.3 |
| 20260904185319 | 25 | 222 | 20.9 | 0.0 | 0.00 | 0.00 | 0.00 | 64 | 1016.3 |
| 20260904182320 | 24 | 223 | 20.9 | 0.0 | 0.00 | 0.00 | 0.00 | 64 | 1016.3 |
| 20260904175319 | 25 | 227 | 19.3 | 0.0 | 0.00 | 0.00 | 0.00 | 64 | 1016.3 |
| 20260904172319 | 25 | 237 | 17.7 | 0.0 | 0.00 | 0.00 | 0.00 | 64 | 1016.3 |
| 20260904165333 | 25 | 241 | 17.7 | 0.0 | 0.00 | 0.00 | 0.00 | 64 | 1016.3 |
| 20260904162326 | 25 | 243 | 20.9 | 0.0 | 0.00 | 0.00 | 0.00 | 64 | 1016.3 |
| 20260904152320 | 25 | 246 | 19.3 | 0.0 | 0.00 | 0.00 | 0.00 | 64 | 1016.3 |